{"data":{"norad_id":67552,"intl_designator":"2026-014W","name":"STARLINK-36567","alt_names":[],"object_type":"PAYLOAD","status":"ACTIVE","operator":null,"country":"US","launch_date":"2026-01-22","launch_site_code":"AFWTR","launch_vehicle":null,"mission":null,"orbit_class":"UNKNOWN","rcs_meters":null,"size_class":null,"mass_kg":null,"dimensions":null,"purposes":["comms"],"wikipedia_slug":null,"has_3d_model":false,"image_url":null,"decayed_at":null,"tle_current":{"epoch":"2026-09-19T14:25:13.067616Z","epoch_age_seconds":149982,"freshness":"FRESH","line1":"1 67552U 26014W   26262.60084569  .00012307  00000+0  38257-3 0  9994","line2":"2 67552  97.2856 148.0288 0001530  48.7906 311.3468 15.33472889 38498","mean_motion":15.33472889,"eccentricity":0.000153,"inclination_deg":97.2856,"raan_deg":148.0288,"arg_perigee_deg":48.7906,"mean_anomaly_deg":311.3468,"bstar":0.00038257,"rev_number":3849,"period_min":93.904496801313,"perigee_km":464.41312732206,"apogee_km":466.50726806455,"semimajor_km":6843.5971976933,"source":"CELESTRAK","updated_at":"2026-09-20T09:00:43.571969Z"}}}